This is the latest recevied weather packets stored in our database for station/object R1CBW-13. If no packets are shown the sender has not sent any weather packets the latest 10 day(s).
| Time | Temp. | Humidity | Pressure | Rain* | Wind** | Luminosity | Snow |
|---|---|---|---|---|---|---|---|
| 1777288572 | 5.56° C | 42% | 1004.9 hPa | 0 mm | - | - | - |
| 1777288513 | 6.11° C | 42% | 1004.6 hPa | 0 mm | - | - | - |
| 1777288453 | 5.56° C | 42% | 1004.9 hPa | 0 mm | - | - | - |
| 1777288393 | 5° C | 43% | 1005.1 hPa | 0 mm | - | - | - |
| 1777288333 | 5.56° C | 44% | 1004.6 hPa | 0 mm | - | - | - |
| 1777288272 | 5° C | 44% | 1004.6 hPa | 0 mm | - | - | - |
| 1777288213 | 5.56° C | 43% | 1004.7 hPa | 0 mm | - | - | - |
| 1777288152 | 5.56° C | 43% | 1004.7 hPa | 0 mm | - | - | - |
| 1777288092 | 5.56° C | 44% | 1005 hPa | 0 mm | - | - | - |
| 1777288032 | 6.11° C | 45% | 1005 hPa | 0 mm | - | - | - |
| 1777287972 | 5.56° C | 45% | 1004.8 hPa | 0 mm | - | - | - |
| 1777287912 | 6.11° C | 47% | 1004.6 hPa | 0 mm | - | - | - |
| 1777287853 | 6.11° C | 46% | 1004.6 hPa | 0 mm | - | - | - |
| 1777287792 | 5.56° C | 47% | 1004.5 hPa | 0 mm | - | - | - |
| 1777287732 | 5.56° C | 47% | 1004.5 hPa | 0 mm | - | - | - |
| 1777287672 | 6.11° C | 46% | 1004.5 hPa | 0 mm | - | - | - |
| 1777287612 | 5.56° C | 46% | 1004.7 hPa | 0 mm | - | - | - |
| 1777287552 | 6.11° C | 46% | 1004.5 hPa | 0 mm | - | - | - |
| 1777287492 | 5° C | 46% | 1004.6 hPa | 0 mm | - | - | - |
| 1777287432 | 5.56° C | 46% | 1004.7 hPa | 0 mm | - | - | - |
| 1777287372 | 5.56° C | 46% | 1004.7 hPa | 0 mm | - | - | - |
| 1777287312 | 5.56° C | 47% | 1004.5 hPa | 0 mm | - | - | - |
| 1777287252 | 5.56° C | 47% | 1004.6 hPa | 0 mm | - | - | - |
| 1777287192 | 5° C | 47% | 1004.6 hPa | 0 mm | - | - | - |
| 1777287132 | 5° C | 46% | 1005 hPa | 0 mm | - | - | - |
* Rain latest hour (hover to see other rain measurements)
** Current wind speed in m/s (hover to see current wind gust speed)